This is the latest recevied weather packets stored in our database for station/object K5OBH. If no packets are shown the sender has not sent any weather packets the latest 10 day(s).
| Time | Temp. | Humidity | Pressure | Rain* | Wind** | Luminosity | Snow |
|---|---|---|---|---|---|---|---|
| 1778073588 | 10° C | 79% | 1016.2 hPa | 0 mm | - | 105 W/m² | - |
| 1778073285 | 10° C | 80% | 1016.3 hPa | 0 mm | - | 84 W/m² | - |
| 1778072982 | 9.44° C | 81% | 1016.3 hPa | 0 mm | - | 68 W/m² | - |
| 1778072679 | 10° C | 81% | 1016.6 hPa | 0 mm | - | 51 W/m² | - |
| 1778072376 | 9.44° C | 82% | 1016.3 hPa | 0 mm | - | 44 W/m² | - |
| 1778072075 | 9.44° C | 82% | 1016 hPa | 0 mm | - | 46 W/m² | - |
| 1778071772 | 9.44° C | 82% | 1016.1 hPa | 0 mm | - | 41 W/m² | - |
| 1778071470 | 9.44° C | 82% | 1016 hPa | 0 mm | - | 38 W/m² | - |
| 1778071167 | 9.44° C | 83% | 1016 hPa | 0 mm | - | 32 W/m² | - |
| 1778070865 | 9.44° C | 83% | 1015.8 hPa | 0 mm | - | 25 W/m² | - |
| 1778070562 | 9.44° C | 84% | 1016 hPa | 0 mm | - | 20 W/m² | - |
| 1778070259 | 9.44° C | 84% | 1015.8 hPa | 0 mm | - | 22 W/m² | - |
| 1778069958 | 9.44° C | 84% | 1015.3 hPa | 0 mm | - | 26 W/m² | - |
| 1778069654 | 8.89° C | 84% | 1015 hPa | 0 mm | - | 21 W/m² | - |
| 1778069351 | 8.89° C | 84% | 1014.9 hPa | 0 mm | - | 13 W/m² | - |
| 1778069049 | 8.89° C | 85% | 1015 hPa | 0 mm | - | 10 W/m² | - |
| 1778068746 | 8.89° C | 84% | 1015 hPa | 0 mm | - | 8 W/m² | - |
| 1778068444 | 8.89° C | 84% | 1014.9 hPa | 0 mm | - | 7 W/m² | - |
| 1778068142 | 8.89° C | 83% | 1014.8 hPa | 0 mm | - | 5 W/m² | - |
| 1778067839 | 8.89° C | 83% | 1014.9 hPa | 0 mm | - | 3 W/m² | - |
| 1778067538 | 8.89° C | 83% | 1014.8 hPa | 0 mm | - | 2 W/m² | - |
| 1778067235 | 8.89° C | 83% | 1015 hPa | 0 mm | - | 1 W/m² | - |
| 1778066931 | 8.89° C | 83% | 1014.8 hPa | 0 mm | - | 1 W/m² | - |
| 1778066629 | 8.89° C | 83% | 1014.6 hPa | 0 mm | - | 0 W/m² | - |
| 1778066326 | 8.89° C | 83% | 1014.5 hPa | 0 mm | - | 0 W/m² | - |
* Rain latest hour (hover to see other rain measurements)
** Current wind speed in m/s (hover to see current wind gust speed)